Погода в Тертере

Азербайджан     40°20′44″N   46°55′56″E
темп.,
°C
ветер,
м/с
пор.,
м/с
влажн.,
%
обл.,
%
осадки,
мм/ч
давл.,
гПа
погр.,
м
3 августа, вт
вт301:00+27юз33247 0.0 101027
04:00+27юз2223100 0.0 101014
07:00+27зсз112385 0.0 101117
10:00+30в221997 0.0 1013420
13:00+33юв44248 0.0 10121450
16:00+35юв55145 0.0 10102320
19:00+34вюв33178 0.0 1010251
22:00+27ююз22254 0.0 101111
4 августа, ср
ср401:00+26юз22270 0.0 101111
04:00+24з11320 0.0 101211
07:00+25з11310 0.0 101316
10:00+33ссв32200 0.0 1013854
13:00+37всв33150 0.0 10112357
16:00+38вюв43140 0.0 10092795
19:00+37вюв34160 0.0 1009158
22:00+29ююз33240 0.0 101131
5 августа, чт
чт501:00+26юв22300 0.0 101213
04:00+24ююз11340 0.0 101211
07:00+26юз11320 0.0 101211
10:00+33ссв21200 0.0 1012763
13:00+38вюв44145 0.0 10102305
16:00+40юв44130 0.0 10072797
19:00+38юв571577 0.0 1007495
22:00+30ююз452410 0.0 101061
6 августа, пт
пт601:00+27ююв23285 0.0 101019
04:00+24ююв22330 0.0 101012
07:00+26ю22300 0.0 101048
10:00+34вюв33180 0.0 10101001
13:00+38вюв44150 0.0 10082015
16:00+40юв66130 0.0 10062506
19:00+38юв89140 0.0 10051064
22:00+29ююз45255 0.0 100769
7 августа, сб
сб701:00+27ююз222911 0.0 100815
04:00+26сз113489 0.0 100711
07:00+28ссз22355 0.0 100858
10:00+32св44305 0.0 10081011
13:00+37всв33225 0.0 10061531
16:00+40юв33160 0.0 10042107
19:00+38вюв77160 0.0 1003859
22:00+31юз452898 0.0 100863